Weather History for Sparta, TN

Change the Weather History Date:

Saturday, April 27, 2013

  Actual Average (KCSV) Record (KCSV)
Temperature  
Mean Temperature 52 °F 59 °F  
Max Temperature 57 °F 70 °F 88 °F (1986)
Min Temperature 48 °F 48 °F 30 °F (1976)
Degree Days  
Heating Degree Days 12    
Month to date heating degree days  
Since 1 July heating degree days  
Cooling Degree Days 0    
Month to date cooling degree days  
Year to date cooling degree days  
Growing Degree Days 2 (Base 50)    
Moisture  
Dew Point 52 °F    
Average Humidity 96    
Maximum Humidity 100    
Minimum Humidity 82    
Precipitation  
Precipitation 0.00 in 0.17 in 2.46 in (1970)
Month to date precipitation 4.36  
Year to date precipitation 18.56  
Sea Level Pressure  
Sea Level Pressure 30.19 in    
Wind  
Wind Speed 4 mph (SSE)    
Max Wind Speed 15 mph    
Max Gust Speed -    
Visibility 7 miles    
Events      
T = Trace of Precipitation, MM = Missing Value Source: NWS Daily Summary

Daily Weather History Graph

Daily Weather History Graph

Search for Another Location

Airport:

Trip Planner

Search our weather history database for the weather conditions in past years. The results will help you decide how hot, cold, wet, or windy it might be!

Date:

Astronomy

Apr. 27, 2013 Rise Set
Actual Time 5:53 AM CDT 7:26 PM CDT
Civil Twilight 5:26 AM CDT 7:53 PM CDT
Nautical Twilight 4:53 AM CDT 8:26 PM CDT
Astronomical Twilight 4:19 AM CDT 9:00 PM CDT
Moon 9:51 PM CDT (4/27) 7:14 AM CDT (4/27)
Length of Visible Light 14h 27m
Length of Day
13h 32m
Waning Gibbous, 95% of the Moon is Illuminated
Apr 27
Waning Gibbous
May 2
Last Quarter
May 9
New
May 17
First Quarter
May 24
Full

Hourly Weather History & Observations

Time (CDT) Temp. Dew Point Humidity Pressure Visibility Wind Dir Wind Speed Gust Speed Precip Events Conditions
12:15 AM 50.0 °F 48.2 °F 94% 30.35 in 7.0 mi Calm Calm - N/A   Overcast
12:35 AM 50.0 °F 48.2 °F 94% 30.35 in 7.0 mi Calm Calm - N/A   Overcast
12:55 AM 48.2 °F 48.2 °F 100% 30.34 in 10.0 mi Calm Calm - N/A   Overcast
1:15 AM 50.0 °F 48.2 °F 94% 30.34 in 8.0 mi Calm Calm - N/A   Overcast
1:35 AM 50.0 °F 48.2 °F 94% 30.33 in 10.0 mi ESE 3.5 mph - N/A   Overcast
1:55 AM 50.0 °F 48.2 °F 94% 30.33 in 10.0 mi Calm Calm - N/A   Overcast
2:15 AM 50.0 °F 48.2 °F 94% 30.34 in 7.0 mi Calm Calm - N/A   Overcast
2:35 AM 48.2 °F 48.2 °F 100% 30.34 in 6.0 mi Calm Calm - N/A   Mostly Cloudy
3:15 AM 48.2 °F 48.2 °F 100% 30.31 in 6.0 mi Calm Calm - N/A   Overcast
3:35 AM 48.2 °F 48.2 °F 100% 30.30 in 6.0 mi East 3.5 mph - N/A   Overcast
3:55 AM 48.2 °F 48.2 °F 100% 30.29 in 7.0 mi ESE 4.6 mph - N/A   Overcast
4:15 AM 48.2 °F 48.2 °F 100% 30.27 in 6.0 mi ESE 5.8 mph - N/A   Overcast
4:35 AM 48.2 °F 48.2 °F 100% 30.25 in 9.0 mi SE 5.8 mph - N/A   Mostly Cloudy
4:55 AM 50.0 °F 48.2 °F 94% 30.23 in 10.0 mi SSE 3.5 mph - N/A   Scattered Clouds
5:15 AM 50.0 °F 50.0 °F 100% 30.23 in 10.0 mi Calm Calm - N/A   Scattered Clouds
6:35 AM 50.0 °F 50.0 °F 100% 30.27 in 10.0 mi North 4.6 mph - N/A   Mostly Cloudy
6:55 AM 50.0 °F 50.0 °F 100% 30.25 in 2.5 mi East 6.9 mph - N/A   Mostly Cloudy
7:15 AM 50.0 °F 50.0 °F 100% 30.26 in 4.0 mi East 3.5 mph - N/A   Mostly Cloudy
7:35 AM 50.0 °F 50.0 °F 100% 30.26 in 2.5 mi East 3.5 mph - N/A   Overcast
7:55 AM 51.8 °F 50.0 °F 94% 30.28 in 2.0 mi Calm Calm - N/A   Overcast
8:15 AM 51.8 °F 51.8 °F 100% 30.27 in 2.0 mi SE 6.9 mph - N/A   Overcast
8:35 AM 51.8 °F 51.8 °F 100% 30.27 in 2.5 mi SE 4.6 mph - N/A   Overcast
8:55 AM 51.8 °F 51.8 °F 100% 30.27 in 2.0 mi Calm Calm - N/A   Overcast
9:15 AM 51.8 °F 51.8 °F 100% 30.25 in 2.0 mi SSE 6.9 mph - N/A   Overcast
9:35 AM 53.6 °F 51.8 °F 94% 30.25 in 3.0 mi South 5.8 mph - N/A   Mostly Cloudy
9:55 AM 53.6 °F 53.6 °F 100% 30.26 in 4.0 mi South 10.4 mph - N/A   Overcast
10:15 AM 53.6 °F 53.6 °F 100% 30.27 in 3.0 mi South 9.2 mph - N/A   Overcast
10:35 AM 53.6 °F 53.6 °F 100% 30.29 in 3.0 mi South 9.2 mph - N/A   Overcast
10:55 AM 53.6 °F 53.6 °F 100% 30.28 in 2.5 mi SSE 6.9 mph - N/A   Overcast
11:15 AM 53.6 °F 51.8 °F 94% 30.29 in 1.8 mi South 5.8 mph - N/A   Overcast
11:35 AM 53.6 °F 53.6 °F 100% 30.24 in 3.0 mi SE 11.5 mph - N/A   Overcast
11:55 AM 53.6 °F 53.6 °F 100% 30.23 in 4.0 mi SE 4.6 mph - N/A   Overcast
12:15 PM 53.6 °F 53.6 °F 100% 30.24 in 3.0 mi SSE 8.1 mph - N/A   Overcast
12:35 PM 53.6 °F 53.6 °F 100% 30.25 in 1.8 mi ENE 3.5 mph - N/A   Overcast
12:55 PM 53.6 °F 53.6 °F 100% 30.22 in 2.0 mi ESE 6.9 mph - N/A   Overcast
1:15 PM 53.6 °F 53.6 °F 100% 30.21 in 8.0 mi SE 5.8 mph - N/A   Overcast
1:35 PM 53.6 °F 53.6 °F 100% 30.20 in 5.0 mi SSE 8.1 mph - N/A   Overcast
1:55 PM 55.4 °F 53.6 °F 94% 30.19 in 10.0 mi SE 5.8 mph - N/A   Overcast
2:15 PM 55.4 °F 55.4 °F 100% 30.19 in 10.0 mi South 9.2 mph - N/A   Overcast
2:35 PM 55.4 °F 53.6 °F 94% 30.17 in 10.0 mi South 12.7 mph - N/A   Overcast
2:55 PM 53.6 °F 53.6 °F 100% 30.17 in 2.0 mi South 8.1 mph - N/A   Overcast
3:15 PM 53.6 °F 53.6 °F 100% 30.17 in 1.5 mi South 5.8 mph - N/A   Overcast
3:35 PM 53.6 °F 51.8 °F 94% 30.16 in 2.0 mi South 9.2 mph - N/A   Overcast
3:55 PM 53.6 °F 53.6 °F 100% 30.15 in 2.0 mi Calm Calm - N/A   Overcast
4:15 PM 53.6 °F 53.6 °F 100% 30.14 in 10.0 mi South 5.8 mph - N/A   Mostly Cloudy
4:35 PM 53.6 °F 53.6 °F 100% 30.14 in 10.0 mi South 8.1 mph - N/A   Mostly Cloudy
4:55 PM 53.6 °F 53.6 °F 100% 30.14 in 10.0 mi South 9.2 mph - N/A   Overcast
5:15 PM 53.6 °F 53.6 °F 100% 30.14 in 4.0 mi South 6.9 mph - N/A   Mostly Cloudy
5:35 PM 53.6 °F 53.6 °F 100% 30.12 in 10.0 mi SSE 9.2 mph - N/A   Mostly Cloudy
5:55 PM 53.6 °F 53.6 °F 100% 30.11 in 7.0 mi South 5.8 mph - N/A   Overcast
6:15 PM 55.4 °F 53.6 °F 94% 30.09 in 8.0 mi SSE 8.1 mph - N/A   Mostly Cloudy
6:35 PM 55.4 °F 53.6 °F 94% 30.08 in 10.0 mi SE 5.8 mph - N/A   Mostly Cloudy
6:55 PM 55.4 °F 53.6 °F 94% 30.08 in 10.0 mi South 6.9 mph - N/A   Mostly Cloudy
7:15 PM 55.4 °F 53.6 °F 94% 30.08 in 10.0 mi South 10.4 mph - N/A   Mostly Cloudy
7:35 PM 55.4 °F 53.6 °F 94% 30.07 in 10.0 mi South 8.1 mph - N/A   Mostly Cloudy
7:55 PM 55.4 °F 53.6 °F 94% 30.05 in 10.0 mi SSE 8.1 mph - N/A   Mostly Cloudy
8:15 PM 55.4 °F 51.8 °F 88% 30.04 in 10.0 mi South 9.2 mph - N/A   Mostly Cloudy
8:35 PM 57.2 °F 51.8 °F 82% 30.03 in 10.0 mi South 10.4 mph - N/A   Partly Cloudy
8:55 PM 55.4 °F 51.8 °F 88% 30.04 in 10.0 mi South 10.4 mph - N/A   Scattered Clouds
9:15 PM 57.2 °F 51.8 °F 82% 30.04 in 10.0 mi South 9.2 mph - N/A   Mostly Cloudy
9:35 PM 55.4 °F 51.8 °F 88% 30.04 in 10.0 mi South 8.1 mph - N/A   Partly Cloudy
9:55 PM 55.4 °F 51.8 °F 88% 30.04 in 10.0 mi South 9.2 mph - N/A   Partly Cloudy
10:15 PM 55.4 °F 51.8 °F 88% 30.04 in 10.0 mi South 10.4 mph - N/A   Partly Cloudy
10:35 PM 55.4 °F 51.8 °F 88% 30.02 in 10.0 mi South 15.0 mph - N/A   Partly Cloudy
10:55 PM 57.2 °F 51.8 °F 82% 30.01 in 10.0 mi South 13.8 mph - N/A   Scattered Clouds
11:15 PM 57.2 °F 51.8 °F 82% 30.01 in 10.0 mi South 10.4 mph - N/A   Partly Cloudy
11:35 PM 57.2 °F 51.8 °F 82% 30.01 in 10.0 mi South 13.8 mph - N/A   Clear
11:55 PM 57.2 °F 53.6 °F 88% 30.00 in 10.0 mi South 12.7 mph - N/A   Scattered Clouds